| time (UTC) | temp F | wind direction | speed knots | gust knots | rain 1hr in | rain 24hr in | rain mn in | humidity % | barometer mb |
| 20260510070016 | 53 | 146 | 0.0 | 0.9 | 0.00 | 0.00 | 0.00 | 73 | 1012.1 |
| 20260510064519 | 55 | 146 | 0.0 | 1.7 | 0.00 | 0.00 | 0.00 | 71 | 1012.1 |
| 20260510063017 | 55 | 246 | 0.0 | 1.7 | 0.00 | 0.00 | 0.00 | 71 | 1012.1 |
| 20260510061514 | 55 | 143 | 0.9 | 2.6 | 0.00 | 0.00 | 0.00 | 72 | 1012.1 |
| 20260510060013 | 54 | 160 | 0.0 | 0.9 | 0.00 | 0.00 | 0.00 | 71 | 1011.9 |
| 20260510054513 | 56 | 170 | 0.9 | 3.5 | 0.00 | 0.00 | 0.00 | 68 | 1011.8 |
| 20260510053011 | 59 | 4 | 1.7 | 5.2 | 0.00 | 0.00 | 0.00 | 65 | 1012.0 |
| 20260510051507 | 57 | 250 | 0.9 | 5.2 | 0.00 | 0.00 | 0.00 | 69 | 1012.0 |
| 20260510050002 | 53 | 77 | 0.0 | 2.6 | 0.00 | 0.00 | 0.00 | 74 | 1012.3 |
| 20260510044600 | 51 | 253 | 0.0 | 0.9 | 0.00 | 0.00 | 0.00 | 76 | 1012.4 |
| 20260510043111 | 51 | 253 | 0.0 | 0.9 | 0.00 | 0.00 | 0.00 | 76 | 1012.4 |
| 20260510041555 | 51 | 253 | 0.0 | 1.7 | 0.00 | 0.00 | 0.00 | 76 | 1012.4 |
| 20260510040059 | 51 | 253 | 0.0 | 0.9 | 0.00 | 0.00 | 0.00 | 74 | 1012.3 |
| 20260510034557 | 52 | 253 | 0.0 | 0.9 | 0.00 | 0.00 | 0.00 | 73 | 1012.3 |
| 20260510033113 | 52 | 253 | 0.0 | 0.9 | 0.00 | 0.00 | 0.00 | 72 | 1012.5 |
| 20260510031554 | 52 | 253 | 0.0 | 0.9 | 0.00 | 0.00 | 0.00 | 70 | 1012.4 |
| 20260510030055 | 55 | 253 | 0.0 | 0.9 | 0.00 | 0.00 | 0.00 | 66 | 1012.3 |
| 20260510024548 | 56 | 253 | 0.0 | 1.7 | 0.00 | 0.00 | 0.00 | 65 | 1012.0 |
| 20260510023047 | 57 | 252 | 0.9 | 1.7 | 0.00 | 0.00 | 0.00 | 62 | 1011.6 |
| 20260510021546 | 62 | 214 | 0.9 | 4.3 | 0.00 | 0.00 | 0.00 | 54 | 1011.5 |
| 20260510020049 | 63 | 39 | 0.9 | 4.3 | 0.00 | 0.00 | 0.00 | 51 | 1011.2 |
| 20260510014548 | 63 | 276 | 0.9 | 2.6 | 0.00 | 0.00 | 0.00 | 52 | 1011.0 |
| 20260510013044 | 63 | 250 | 0.9 | 4.3 | 0.00 | 0.00 | 0.00 | 52 | 1010.8 |
| 20260510011545 | 61 | 271 | 0.0 | 1.7 | 0.00 | 0.00 | 0.00 | 53 | 1010.5 |
| 20260510010043 | 62 | 228 | 0.0 | 3.5 | 0.00 | 0.00 | 0.00 | 51 | 1010.3 |
| 20260510004543 | 64 | 253 | 0.0 | 5.2 | 0.00 | 0.00 | 0.00 | 47 | 1010.1 |
| 20260510003043 | 67 | 252 | 0.0 | 6.1 | 0.00 | 0.00 | 0.00 | 43 | 1009.8 |
| 20260510001544 | 67 | 248 | 1.7 | 4.3 | 0.00 | 0.00 | 0.00 | 42 | 1009.4 |
| 20260510000059 | 68 | 217 | 2.6 | 6.1 | 0.00 | 0.00 | 0.00 | 43 | 1009.2 |
| 20260509234553 | 68 | 203 | 3.5 | 7.0 | 0.00 | 0.00 | 0.00 | 44 | 1009.0 |
| 20260509233046 | 69 | 277 | 1.7 | 7.8 | 0.00 | 0.00 | 0.00 | 45 | 1008.9 |
| 20260509231543 | 70 | 320 | 1.7 | 7.0 | 0.00 | 0.00 | 0.00 | 46 | 1008.9 |
| 20260509230039 | 72 | 259 | 2.6 | 7.8 | 0.00 | 0.00 | 0.00 | 50 | 1008.8 |
| 20260509224538 | 72 | 238 | 6.1 | 9.6 | 0.00 | 0.00 | 0.00 | 48 | 1008.7 |
| 20260509223041 | 69 | 230 | 4.3 | 7.0 | 0.00 | 0.00 | 0.00 | 56 | 1008.8 |
| 20260509221540 | 70 | 214 | 3.5 | 8.7 | 0.00 | 0.00 | 0.00 | 55 | 1008.8 |
| 20260509220037 | 70 | 254 | 6.1 | 10.4 | 0.00 | 0.00 | 0.00 | 54 | 1008.6 |
| 20260509214536 | 71 | 261 | 5.2 | 9.6 | 0.00 | 0.00 | 0.00 | 53 | 1008.7 |
| 20260509213039 | 72 | 242 | 7.0 | 11.3 | 0.00 | 0.00 | 0.00 | 53 | 1008.5 |
| 20260509211536 | 70 | 257 | 4.3 | 7.8 | 0.00 | 0.00 | 0.00 | 54 | 1008.5 |
| 20260509210040 | 70 | 243 | 6.1 | 9.6 | 0.00 | 0.00 | 0.00 | 55 | 1008.4 |
| 20260509204540 | 70 | 230 | 6.1 | 10.4 | 0.00 | 0.00 | 0.00 | 54 | 1008.3 |
| 20260509203033 | 72 | 244 | 5.2 | 13.0 | 0.00 | 0.00 | 0.00 | 52 | 1008.2 |
| 20260509201536 | 73 | 263 | 5.2 | 12.2 | 0.00 | 0.00 | 0.00 | 51 | 1008.1 |
| 20260509200034 | 72 | 252 | 7.8 | 11.3 | 0.00 | 0.00 | 0.00 | 52 | 1008.0 |
| 20260509194528 | 72 | 231 | 6.1 | 13.0 | 0.00 | 0.00 | 0.00 | 49 | 1008.3 |
| 20260509193028 | 71 | 243 | 5.2 | 13.9 | 0.00 | 0.00 | 0.00 | 55 | 1008.4 |
| 20260509191527 | 70 | 238 | 6.1 | 11.3 | 0.00 | 0.00 | 0.00 | 54 | 1008.7 |
| 20260509190025 | 70 | 276 | 8.7 | 15.6 | 0.00 | 0.00 | 0.00 | 53 | 1008.9 |
| 20260509184534 | 70 | 255 | 7.0 | 14.8 | 0.00 | 0.00 | 0.00 | 53 | 1008.9 |
| 20260509183019 | 69 | 251 | 6.1 | 9.6 | 0.00 | 0.00 | 0.00 | 54 | 1009.0 |
| 20260509181518 | 70 | 243 | 7.0 | 12.2 | 0.00 | 0.00 | 0.00 | 53 | 1009.1 |
| 20260509180017 | 71 | 238 | 7.0 | 10.4 | 0.00 | 0.00 | 0.00 | 49 | 1009.2 |
| 20260509174512 | 69 | 215 | 3.5 | 9.6 | 0.00 | 0.00 | 0.00 | 54 | 1009.4 |
| 20260509173009 | 68 | 249 | 4.3 | 9.6 | 0.00 | 0.00 | 0.00 | 51 | 1009.8 |
| 20260509171508 | 69 | 228 | 6.1 | 10.4 | 0.00 | 0.00 | 0.00 | 51 | 1009.9 |
| 20260509170006 | 68 | 253 | 5.2 | 12.2 | 0.00 | 0.00 | 0.00 | 53 | 1010.1 |
| 20260509164503 | 67 | 203 | 4.3 | 9.6 | 0.00 | 0.00 | 0.00 | 57 | 1010.1 |
| 20260509163002 | 67 | 231 | 5.2 | 13.0 | 0.00 | 0.00 | 0.00 | 56 | 1010.3 |
| 20260509161604 | 66 | 212 | 6.1 | 13.0 | 0.00 | 0.00 | 0.00 | 58 | 1010.2 |
| 20260509160100 | 67 | 238 | 6.1 | 10.4 | 0.00 | 0.00 | 0.00 | 59 | 1010.2 |
| 20260509154558 | 66 | 245 | 7.8 | 11.3 | 0.00 | 0.00 | 0.00 | 56 | 1010.2 |
| 20260509153057 | 67 | 248 | 7.8 | 13.0 | 0.00 | 0.00 | 0.00 | 58 | 1010.3 |
| 20260509151602 | 66 | 220 | 7.0 | 10.4 | 0.00 | 0.00 | 0.00 | 61 | 1010.5 |
| 20260509150053 | 65 | 238 | 7.8 | 12.2 | 0.00 | 0.00 | 0.00 | 60 | 1010.6 |
| 20260509144606 | 64 | 226 | 7.0 | 12.2 | 0.00 | 0.00 | 0.00 | 62 | 1010.4 |
| 20260509143116 | 64 | 264 | 8.7 | 13.9 | 0.00 | 0.00 | 0.00 | 60 | 1010.5 |
| 20260509141548 | 64 | 235 | 7.0 | 10.4 | 0.00 | 0.00 | 0.00 | 63 | 1010.4 |
| 20260509140044 | 61 | 269 | 8.7 | 11.3 | 0.00 | 0.00 | 0.00 | 65 | 1010.5 |
| 20260509134559 | 60 | 220 | 6.1 | 10.4 | 0.00 | 0.00 | 0.00 | 67 | 1010.9 |
| 20260509133042 | 58 | 229 | 7.0 | 10.4 | 0.00 | 0.00 | 0.00 | 67 | 1011.2 |
| 20260509131531 | 58 | 243 | 6.1 | 11.3 | 0.00 | 0.00 | 0.00 | 67 | 1011.4 |
| 20260509130031 | 58 | 243 | 6.1 | 9.6 | 0.00 | 0.00 | 0.00 | 69 | 1011.4 |
| 20260509124527 | 57 | 250 | 6.1 | 9.6 | 0.00 | 0.00 | 0.00 | 67 | 1011.6 |
| 20260509123022 | 57 | 240 | 5.2 | 7.8 | 0.00 | 0.00 | 0.00 | 68 | 1011.8 |
| 20260509121537 | 57 | 255 | 3.5 | 8.7 | 0.00 | 0.00 | 0.00 | 68 | 1011.6 |
| 20260509120015 | 57 | 262 | 5.2 | 8.7 | 0.00 | 0.00 | 0.00 | 68 | 1011.8 |
| 20260509114526 | 56 | 245 | 3.5 | 7.0 | 0.00 | 0.00 | 0.00 | 68 | 1011.8 |
| 20260509113014 | 55 | 248 | 3.5 | 6.1 | 0.00 | 0.00 | 0.00 | 68 | 1011.7 |
| 20260509111504 | 55 | 244 | 3.5 | 6.1 | 0.00 | 0.00 | 0.00 | 68 | 1011.8 |
| 20260509110003 | 54 | 257 | 2.6 | 7.0 | 0.00 | 0.00 | 0.00 | 67 | 1011.8 |
| 20260509104502 | 54 | 253 | 5.2 | 7.8 | 0.00 | 0.00 | 0.00 | 66 | 1011.5 |
| 20260509103106 | 54 | 272 | 5.2 | 8.7 | 0.00 | 0.00 | 0.00 | 65 | 1011.6 |
| 20260509103001 | 54 | 260 | 6.1 | 8.7 | 0.00 | 0.00 | 0.00 | 65 | 1011.7 |
| 20260509101624 | 54 | 271 | 4.3 | 7.8 | 0.00 | 0.00 | 0.00 | 65 | 1011.7 |
| 20260509100100 | 54 | 272 | 3.5 | 7.8 | 0.00 | 0.00 | 0.00 | 65 | 1011.8 |
| 20260509094603 | 54 | 269 | 6.1 | 8.7 | 0.00 | 0.00 | 0.00 | 64 | 1011.8 |
| 20260509093104 | 54 | 268 | 6.1 | 8.7 | 0.00 | 0.00 | 0.00 | 64 | 1011.9 |
| 20260509091552 | 53 | 269 | 5.2 | 7.0 | 0.00 | 0.00 | 0.00 | 65 | 1012.0 |
| 20260509090101 | 53 | 246 | 4.3 | 7.0 | 0.00 | 0.00 | 0.00 | 63 | 1012.1 |
| 20260509084550 | 53 | 277 | 5.2 | 8.7 | 0.00 | 0.00 | 0.00 | 62 | 1012.1 |
| 20260509083050 | 52 | 271 | 5.2 | 8.7 | 0.00 | 0.00 | 0.00 | 63 | 1012.1 |
| 20260509081555 | 53 | 252 | 6.1 | 8.7 | 0.00 | 0.00 | 0.00 | 62 | 1012.1 |
| 20260509080049 | 53 | 261 | 5.2 | 7.8 | 0.00 | 0.00 | 0.00 | 62 | 1012.2 |
| 20260509074549 | 53 | 275 | 6.1 | 7.8 | 0.00 | 0.00 | 0.00 | 61 | 1012.3 |
| 20260509073054 | 53 | 249 | 5.2 | 7.8 | 0.00 | 0.00 | 0.00 | 62 | 1012.6 |
| 20260509071550 | 52 | 259 | 5.2 | 7.0 | 0.00 | 0.00 | 0.00 | 64 | 1012.8 |